GW3011 Weather Reports


time (UTC)temp
C
wind
direction
speed
KPH
gust
KPH
rain 1hr
cm
rain 24hr
cm
rain mn
cm
humidity
%
barometer
mb
20260901021928 22 250 0.0 0.0 0.00 0.00 0.00 87 1017.8
20260901021424 22 281 0.0 0.0 0.00 0.00 0.00 87 1018.0
20260901020919 22 42 0.0 0.0 0.00 0.00 0.00 86 1017.7
20260901020414 22 106 0.0 0.0 0.00 0.00 0.00 85 1017.8
20260901015913 22 114 0.0 0.0 0.00 0.00 0.00 85 1017.8
20260901015410 22 42 0.0 0.0 0.00 0.00 0.00 87 1017.8
20260901014909 22 36 0.0 0.0 0.00 0.00 0.00 86 1017.9
20260901014405 22 122 0.0 0.0 0.00 0.00 0.00 86 1017.6
20260901013900 22 330 0.0 0.0 0.00 0.00 0.00 86 1017.9
20260901013356 22 122 0.0 0.0 0.00 0.00 0.00 86 1018.0
20260901012852 22 153 0.0 0.0 0.00 0.00 0.00 85 1017.9
20260901012346 22 162 0.0 0.0 0.00 0.00 0.00 85 1017.9
20260901011842 22 355 0.0 0.0 0.00 0.00 0.00 85 1018.2
20260901011338 22 88 0.0 0.0 0.00 0.00 0.00 85 1018.2
20260901010837 22 325 0.0 0.0 0.00 0.00 0.00 85 1018.1
20260901010337 22 57 0.0 0.0 0.00 0.00 0.00 86 1017.9
20260901005835 22 55 0.0 0.0 0.00 0.00 0.00 86 1017.9
20260901005331 22 148 0.0 0.0 0.00 0.00 0.00 85 1017.8
20260901004826 22 112 0.0 0.0 0.00 0.00 0.00 85 1017.7
20260901004320 22 73 0.0 0.0 0.00 0.00 0.00 86 1017.6
20260901003821 22 76 0.0 0.0 0.00 0.00 0.00 85 1017.7
20260901003316 22 259 0.0 0.0 0.00 0.00 0.00 86 1017.8
20260901002814 22 335 0.0 0.0 0.00 0.00 0.00 86 1017.6
20260901002309 22 19 0.0 0.0 0.00 0.00 0.00 85 1017.5
20260901001804 22 69 0.0 0.0 0.00 0.00 0.00 85 1017.6
20260901001259 22 180 0.0 0.0 0.00 0.00 0.00 85 1017.8
20260901000754 22 319 0.0 0.0 0.00 0.00 0.00 84 1017.7
20260901000250 22 339 0.0 0.0 0.00 0.00 0.00 84 1017.8
20260831235748 22 43 0.0 0.0 0.00 0.00 0.00 84 1017.7
20260831235244 22 336 0.0 0.0 0.00 0.00 0.00 84 1017.9
20260831234739 22 2 0.0 0.0 0.00 0.00 0.00 84 1017.7
20260831234238 22 268 0.0 0.0 0.00 0.00 0.00 84 1017.9
20260831233734 22 6 0.0 0.0 0.00 0.00 0.00 83 1017.8
20260831233229 22 308 0.0 0.0 0.00 0.00 0.00 83 1017.8
20260831232724 22 51 0.0 0.0 0.00 0.00 0.00 83 1017.7
20260831232220 22 303 0.0 0.0 0.00 0.00 0.00 82 1017.7
20260831231716 22 355 0.0 0.0 0.00 0.00 0.00 82 1017.8
20260831231212 23 311 0.0 0.0 0.00 0.00 0.00 81 1017.9
20260831230712 23 7 0.0 0.0 0.00 0.00 0.00 81 1017.6
20260831230208 23 192 0.0 0.0 0.00 0.00 0.00 81 1017.9
20260831225707 23 316 0.0 0.0 0.00 0.00 0.00 81 1017.9
20260831225202 23 58 0.0 0.0 0.00 0.00 0.00 81 1017.8
20260831224657 23 216 0.0 0.0 0.00 0.00 0.00 80 1018.0
20260831224152 23 94 0.0 0.0 0.00 0.00 0.00 79 1017.8
20260831223648 23 99 0.0 0.0 0.00 0.00 0.00 79 1017.8
20260831223144 23 269 0.0 0.0 0.00 0.00 0.00 79 1017.8
20260831222639 23 224 0.0 0.0 0.00 0.00 0.00 79 1017.8
20260831222135 23 60 0.0 0.0 0.00 0.00 0.00 79 1017.9
20260831221630 23 77 0.0 0.0 0.00 0.00 0.00 78 1017.8
20260831221125 23 3 0.0 0.0 0.00 0.00 0.00 78 1017.9
20260831220621 24 80 0.0 0.0 0.00 0.00 0.00 76 1018.2
20260831220116 24 107 0.0 0.0 0.00 0.00 0.00 76 1018.1
20260831215611 24 80 0.0 0.0 0.00 0.00 0.00 76 1018.2
20260831215107 24 72 0.0 0.0 0.00 0.00 0.00 75 1018.0
20260831214604 23 101 0.0 0.0 0.00 0.00 0.00 76 1017.8
20260831214100 24 97 0.0 0.0 0.00 0.00 0.00 76 1017.9
20260831213556 24 233 0.0 0.0 0.00 0.00 0.00 76 1018.3
20260831213051 24 44 0.0 0.0 0.00 0.00 0.00 76 1018.0
20260831212547 23 97 0.0 0.0 0.00 0.00 0.00 77 1018.1
20260831212043 24 305 0.0 0.0 0.00 0.00 0.00 77 1018.4
20260831211537 23 152 0.0 0.0 0.00 0.00 0.00 78 1018.1
20260831211036 23 38 0.0 0.0 0.00 0.00 0.00 77 1018.3
20260831210531 24 237 0.0 0.0 0.00 0.00 0.00 77 1018.4
20260831210028 24 304 0.0 0.0 0.00 0.00 0.00 75 1018.5
20260831205522 24 190 0.0 0.0 0.00 0.00 0.00 77 1018.3
20260831205018 23 63 0.0 0.0 0.00 0.00 0.00 79 1018.3
20260831204518 23 88 0.0 0.0 0.00 0.00 0.00 77 1018.2
20260831204016 23 341 0.0 0.0 0.00 0.00 0.00 76 1018.1
20260831203511 23 37 0.0 0.0 0.00 0.00 0.00 77 1018.2
20260831203010 23 329 0.0 0.0 0.00 0.00 0.00 77 1018.2
20260831202504 23 44 0.0 0.0 0.00 0.00 0.00 76 1018.3
20260831202003 23 301 0.0 0.0 0.00 0.00 0.00 76 1018.3
20260831201502 24 110 0.0 0.0 0.00 0.00 0.00 75 1018.7
20260831200958 23 69 0.0 0.0 0.00 0.00 0.00 77 1018.7
20260831200453 23 297 0.0 0.0 0.00 0.00 0.00 78 1018.7
20260831195948 23 73 0.0 0.0 0.00 0.00 0.00 77 1018.6
20260831195444 23 103 0.0 0.0 0.00 0.00 0.00 79 1018.8
20260831194938 23 103 0.0 0.0 0.00 0.00 0.00 78 1019.0
20260831194434 23 104 0.0 0.0 0.00 0.00 0.00 77 1018.9
20260831193933 23 101 0.0 0.0 0.00 0.00 0.00 79 1019.0
20260831193429 24 107 0.0 0.0 0.00 0.00 0.00 78 1018.8
20260831192924 25 53 0.0 0.0 0.00 0.00 0.00 72 1018.8
20260831192419 25 112 0.0 0.0 0.00 0.00 0.00 71 1018.9
20260831191914 25 47 0.0 0.0 0.00 0.00 0.00 71 1019.1
20260831191410 25 92 0.0 0.0 0.00 0.00 0.00 71 1019.0
20260831190906 25 35 0.0 0.0 0.00 0.00 0.00 70 1019.0
20260831190406 25 14 0.0 0.0 0.00 0.00 0.00 71 1019.1
20260831185905 25 38 0.0 0.0 0.00 0.00 0.00 70 1019.0
20260831185401 25 327 0.0 0.0 0.00 0.00 0.00 69 1019.2
20260831184900 26 289 0.0 0.0 0.00 0.00 0.00 68 1018.9
20260831184355 26 179 0.0 0.0 0.00 0.00 0.00 67 1019.1
20260831183851 26 176 0.0 0.0 0.00 0.00 0.00 66 1018.8
20260831183350 26 353 0.0 0.0 0.00 0.00 0.00 66 1019.1
20260831182849 26 27 0.0 0.0 0.00 0.00 0.00 66 1019.0
20260831182345 26 283 0.0 0.0 0.00 0.00 0.00 67 1019.1
20260831181840 26 241 0.0 0.0 0.00 0.00 0.00 63 1018.9
20260831181335 26 346 0.0 0.0 0.00 0.00 0.00 67 1019.3
20260831180830 27 304 0.0 0.0 0.00 0.00 0.00 62 1019.2
20260831180325 26 286 0.0 0.0 0.00 0.00 0.00 64 1019.2
20260831175824 27 49 0.0 0.0 0.00 0.00 0.00 62 1019.3
20260831175320 26 216 0.0 0.0 0.00 0.00 0.00 64 1019.3
20260831174816 27 91 0.0 0.0 0.00 0.00 0.00 63 1019.4
20260831174312 26 115 0.0 0.0 0.00 0.00 0.00 64 1019.2
20260831173811 27 307 0.0 0.0 0.00 0.00 0.00 63 1019.4
20260831173305 26 350 0.0 0.0 0.00 0.00 0.00 64 1019.1
20260831172800 25 318 0.0 0.0 0.00 0.00 0.00 66 1019.3
20260831172255 26 45 0.0 0.0 0.00 0.00 0.00 65 1019.4
20260831171749 26 96 0.0 0.0 0.00 0.00 0.00 63 1019.4
20260831171247 26 319 0.0 0.0 0.00 0.00 0.00 65 1019.4
20260831170743 26 339 0.0 0.0 0.00 0.00 0.00 63 1019.2
20260831170239 26 257 0.0 0.0 0.00 0.00 0.00 65 1019.4
20260831165735 26 21 0.0 0.0 0.00 0.00 0.00 67 1019.4
20260831165232 25 158 0.0 0.0 0.00 0.00 0.00 66 1019.4
20260831164727 26 13 0.0 0.0 0.00 0.00 0.00 65 1019.5
20260831164223 27 141 0.0 0.0 0.00 0.00 0.00 63 1019.6
20260831163718 27 123 0.0 0.0 0.00 0.00 0.00 62 1019.4
20260831163214 26 357 0.0 0.0 0.00 0.00 0.00 63 1019.3
20260831162712 25 341 0.0 0.0 0.00 0.00 0.00 66 1019.5
20260831162212 26 59 0.0 0.0 0.00 0.00 0.00 63 1019.6
20260831161707 25 93 0.0 0.0 0.00 0.00 0.00 64 1019.6
20260831161203 25 296 0.0 0.0 0.00 0.00 0.00 66 1019.6
20260831160702 25 40 0.0 0.0 0.00 0.00 0.00 67 1019.6
20260831160157 25 304 0.0 0.0 0.00 0.00 0.00 66 1019.6
20260831155651 25 255 0.0 0.0 0.00 0.00 0.00 66 1019.4
20260831155147 25 23 0.0 0.0 0.00 0.00 0.00 65 1019.5
20260831154643 26 316 0.0 0.0 0.00 0.00 0.00 65 1019.6
20260831154138 25 344 0.0 0.0 0.00 0.00 0.00 67 1019.6
20260831153637 25 220 0.0 0.0 0.00 0.00 0.00 68 1019.8
20260831153134 23 242 0.0 0.0 0.00 0.00 0.00 71 1019.7
20260831152629 24 284 0.0 0.0 0.00 0.00 0.00 70 1019.7
20260831152125 23 351 0.0 0.0 0.00 0.00 0.00 72 1019.7
20260831151624 24 356 0.0 0.0 0.00 0.00 0.00 71 1019.7
20260831151119 25 338 0.0 0.0 0.00 0.00 0.00 69 1019.7
20260831150614 25 281 0.0 0.0 0.00 0.00 0.00 70 1019.7
20260831150110 24 177 0.0 0.0 0.00 0.00 0.00 69 1019.9
20260831145603 24 290 0.0 0.0 0.00 0.00 0.00 71 1020.1
20260831145100 23 239 0.0 0.0 0.00 0.00 0.00 72 1019.7
20260831144555 24 288 0.0 0.0 0.00 0.00 0.00 73 1019.8
20260831144051 23 352 0.0 0.0 0.00 0.00 0.00 73 1020.0
20260831143545 23 278 0.0 0.0 0.00 0.00 0.00 74 1019.9
20260831143041 23 279 0.0 0.0 0.00 0.00 0.00 75 1019.7
20260831142537 23 260 0.0 0.0 0.00 0.00 0.00 75 1019.8
20260831142032 23 232 0.0 0.0 0.00 0.00 0.00 75 1019.7
20260831141531 22 218 0.0 0.0 0.00 0.00 0.00 76 1019.9
20260831141026 23 202 0.0 0.0 0.00 0.00 0.00 75 1019.9
20260831140521 23 267 0.0 0.0 0.00 0.00 0.00 75 1019.8
20260831140021 23 298 0.0 0.0 0.00 0.00 0.00 74 1019.6
20260831135518 22 322 0.0 0.0 0.00 0.00 0.00 75 1019.8
20260831135014 23 272 0.0 0.0 0.00 0.00 0.00 75 1019.7
20260831134510 22 257 0.0 0.0 0.00 0.00 0.00 76 1019.5
20260831134009 22 288 0.0 0.0 0.00 0.00 0.00 76 1019.5
20260831133504 22 242 0.0 0.0 0.00 0.00 0.00 75 1019.5
20260831132958 22 328 0.0 0.0 0.00 0.00 0.00 75 1019.4
20260831132455 23 307 0.0 0.0 0.00 0.00 0.00 74 1019.4
20260831131954 22 190 0.0 0.0 0.00 0.00 0.00 75 1019.6
20260831131454 22 178 0.0 0.0 0.00 0.00 0.00 76 1019.6
20260831130950 22 224 0.0 0.0 0.00 0.00 0.00 77 1019.7
20260831130445 22 203 0.0 0.0 0.00 0.00 0.00 77 1019.6
20260831125944 22 195 0.0 0.0 0.00 0.00 0.00 77 1019.7
20260831125439 22 182 0.0 0.0 0.00 0.00 0.00 78 1019.6
20260831124935 22 252 0.0 0.0 0.00 0.00 0.00 78 1019.7
20260831124431 22 257 0.0 0.0 0.00 0.00 0.00 78 1019.6
20260831123926 22 287 0.0 0.0 0.00 0.00 0.00 78 1019.5
20260831123424 22 206 0.0 0.0 0.00 0.00 0.00 78 1019.5
20260831122920 22 187 0.0 0.0 0.00 0.00 0.00 78 1019.7
20260831122414 22 259 0.0 0.0 0.00 0.00 0.00 78 1019.7
20260831121910 22 225 0.0 0.0 0.00 0.00 0.00 78 1019.5
20260831121401 22 302 0.0 0.0 0.00 0.00 0.00 78 1019.5
20260831120855 22 182 0.0 0.0 0.00 0.00 0.00 78 1019.4
20260831120355 22 190 0.0 0.0 0.00 0.00 0.00 78 1019.5
20260831115845 22 231 0.0 0.0 0.00 0.00 0.00 79 1019.4
20260831115342 22 241 0.0 0.0 0.00 0.00 0.00 80 1019.4
20260831114841 22 193 0.0 0.0 0.00 0.00 0.00 79 1019.3
20260831114339 22 191 0.0 0.0 0.00 0.00 0.00 80 1019.3
20260831113830 22 343 0.0 0.0 0.00 0.00 0.00 80 1019.0
20260831113329 22 279 0.0 0.0 0.00 0.00 0.00 81 1018.9
20260831112824 22 285 0.0 0.0 0.00 0.00 0.00 81 1019.1
20260831112319 22 310 0.0 0.0 0.00 0.00 0.00 80 1019.2
20260831111815 22 11 0.0 0.0 0.00 0.00 0.00 80 1019.3
20260831111311 22 174 0.0 0.0 0.00 0.00 0.00 81 1019.2
20260831110806 22 165 0.0 0.0 0.00 0.00 0.00 80 1019.1
20260831110301 21 237 0.0 0.0 0.00 0.00 0.00 81 1019.1
20260831105759 21 186 0.0 0.0 0.00 0.00 0.00 81 1019.1
20260831105255 21 265 0.0 0.0 0.00 0.00 0.00 81 1019.0
20260831104750 21 203 0.0 0.0 0.00 0.00 0.00 81 1018.8
20260831104246 21 287 0.0 0.0 0.00 0.00 0.00 81 1018.7
20260831103746 22 332 0.0 0.0 0.00 0.00 0.00 81 1018.7
20260831103241 22 338 0.0 0.0 0.00 0.00 0.00 80 1018.9
20260831102736 22 214 0.0 0.0 0.00 0.00 0.00 81 1018.5
20260831102231 22 201 0.0 0.0 0.00 0.00 0.00 81 1018.6
20260831101726 22 296 0.0 0.0 0.00 0.00 0.00 80 1018.5
20260831101222 22 218 0.0 0.0 0.00 0.00 0.00 80 1018.3
20260831100718 22 328 0.0 0.0 0.00 0.00 0.00 80 1018.5
20260831100214 22 328 0.0 0.0 0.00 0.00 0.00 80 1018.3
20260831095712 22 191 0.0 0.0 0.00 0.00 0.00 79 1018.7
20260831095207 22 156 0.0 0.0 0.00 0.00 0.00 79 1018.4
20260831094702 22 186 0.0 0.0 0.00 0.00 0.00 80 1018.3
20260831094158 22 293 0.0 0.0 0.00 0.00 0.00 79 1018.3
20260831093654 22 136 0.0 0.0 0.00 0.00 0.00 80 1018.2
20260831093149 22 145 0.0 0.0 0.00 0.00 0.00 79 1018.3
20260831092645 22 290 0.0 0.0 0.00 0.00 0.00 79 1018.1
20260831092141 22 133 0.0 0.0 0.00 0.00 0.00 79 1018.2
20260831091640 22 154 0.0 0.0 0.00 0.00 0.00 79 1018.2
20260831091136 22 285 0.0 0.0 0.00 0.00 0.00 79 1018.1
20260831090631 22 115 0.0 0.0 0.00 0.00 0.00 80 1018.1
20260831090127 22 115 0.0 0.0 0.00 0.00 0.00 80 1017.7
20260831085622 22 133 0.0 0.0 0.00 0.00 0.00 79 1018.0
20260831085118 22 142 0.0 0.0 0.00 0.00 0.00 78 1017.9
20260831084614 22 144 0.0 0.0 0.00 0.00 0.00 78 1017.8
20260831084109 22 175 0.0 0.0 0.00 0.00 0.00 78 1018.1
20260831083605 22 164 0.0 0.0 0.00 0.00 0.00 77 1018.1
20260831083100 22 134 0.0 0.0 0.00 0.00 0.00 78 1018.2
20260831082553 22 169 0.0 0.0 0.00 0.00 0.00 78 1018.0
20260831082049 22 146 0.0 0.0 0.00 0.00 0.00 77 1017.8
20260831081544 22 176 0.0 0.0 0.00 0.00 0.00 77 1017.9
20260831081040 22 129 0.0 0.0 0.00 0.00 0.00 77 1017.9
20260831080540 22 194 0.0 0.0 0.00 0.00 0.00 76 1018.0
20260831080030 22 171 0.0 0.0 0.00 0.00 0.00 76 1018.2
20260831075525 22 207 0.0 0.0 0.00 0.00 0.00 76 1017.8
20260831075020 22 197 0.0 0.0 0.00 0.00 0.00 76 1018.1
20260831074515 22 321 0.0 0.0 0.00 0.00 0.00 77 1018.2
20260831074014 22 174 0.0 0.0 0.00 0.00 0.00 76 1018.1
20260831073509 22 167 0.0 0.0 0.00 0.00 0.00 77 1018.2
20260831073009 22 222 0.0 0.0 0.00 0.00 0.00 77 1018.1
20260831072504 22 175 0.0 0.0 0.00 0.00 0.00 77 1018.1
20260831072000 22 171 0.0 0.0 0.00 0.00 0.00 78 1017.9
20260831071459 22 209 0.0 0.0 0.00 0.00 0.00 77 1018.0
20260831070954 22 192 0.0 0.0 0.00 0.00 0.00 77 1018.2
20260831070453 22 182 0.0 0.0 0.00 0.00 0.00 78 1018.1
20260831065952 22 204 0.0 0.0 0.00 0.00 0.00 78 1018.2
20260831065450 22 214 0.0 0.0 0.00 0.00 0.00 78 1018.0
20260831064945 22 200 0.0 0.0 0.00 0.00 0.00 78 1018.1
20260831064440 22 122 0.0 0.0 0.00 0.00 0.00 79 1018.4
20260831063936 22 144 0.0 0.0 0.00 0.00 0.00 79 1018.2
20260831063431 22 150 0.0 0.0 0.00 0.00 0.00 78 1018.0
20260831062925 22 196 0.0 0.0 0.00 0.00 0.00 79 1018.2
20260831062421 22 109 0.0 0.0 0.00 0.00 0.00 78 1018.0
20260831061919 23 176 0.0 0.0 0.00 0.00 0.00 78 1018.1
20260831061418 23 171 0.0 0.0 0.00 0.00 0.00 77 1018.2
20260831060915 22 159 0.0 0.0 0.00 0.00 0.00 78 1018.4
20260831060410 23 189 0.0 0.0 0.00 0.00 0.00 78 1018.3
20260831055909 23 199 0.0 0.0 0.00 0.00 0.00 77 1018.2
20260831055404 23 140 0.0 0.0 0.00 0.00 0.00 79 1018.4
20260831054859 23 136 0.0 0.0 0.00 0.00 0.00 78 1018.5
20260831054354 23 222 0.0 0.0 0.00 0.00 0.00 77 1018.3
20260831053848 23 205 0.0 0.0 0.00 0.00 0.00 77 1018.3
20260831053346 23 196 0.0 0.0 0.00 0.00 0.00 78 1017.9
20260831052840 23 18 0.0 0.0 0.00 0.00 0.00 79 1018.0
20260831052335 23 171 0.0 0.0 0.00 0.00 0.00 81 1018.1
20260831051833 23 173 0.0 0.0 0.00 0.00 0.00 80 1018.2
20260831051332 23 183 0.0 0.0 0.00 0.00 0.00 81 1018.5
20260831050826 23 205 0.0 0.0 0.00 0.00 0.00 80 1018.5
20260831050326 23 144 0.0 0.0 0.00 0.00 0.00 80 1018.5
20260831045820 23 190 0.0 0.0 0.00 0.00 0.00 82 1018.4
20260831045314 23 116 0.0 0.0 0.00 0.00 0.00 82 1018.5
20260831044809 23 194 0.0 0.0 0.00 0.00 0.00 82 1018.5
20260831044304 23 123 0.0 0.0 0.00 0.00 0.00 82 1018.2
20260831043800 23 177 0.0 0.0 0.00 0.00 0.00 82 1018.3
20260831043254 23 177 0.0 0.0 0.00 0.00 0.00 83 1018.1
20260831042749 23 136 0.0 0.0 0.00 0.00 0.00 82 1018.3
20260831042243 23 141 0.0 0.0 0.00 0.00 0.00 82 1018.2
20260831041738 23 191 0.0 0.0 0.00 0.00 0.00 82 1018.0
20260831041237 23 188 0.0 0.0 0.00 0.00 0.00 82 1018.0
20260831040732 23 187 0.0 0.0 0.00 0.00 0.00 82 1018.0
20260831040232 23 207 0.0 0.0 0.00 0.00 0.00 83 1017.9
20260831035725 23 126 0.0 0.0 0.00 0.00 0.00 84 1017.8
20260831035224 23 184 0.0 0.0 0.00 0.00 0.00 84 1018.1
20260831034723 23 177 0.0 0.0 0.00 0.00 0.00 84 1017.9
20260831034220 23 57 0.0 0.0 0.00 0.00 0.00 83 1018.1
20260831033715 23 178 0.0 0.0 0.00 0.00 0.00 83 1018.0
20260831033214 23 177 0.0 0.0 0.00 0.00 0.00 83 1018.1
20260831032709 23 177 0.0 0.0 0.00 0.00 0.00 83 1018.0
20260831032205 23 178 0.0 0.0 0.00 0.00 0.00 86 1018.0
20260831031659 23 185 0.0 0.0 0.00 0.00 0.00 88 1018.0
20260831031159 23 181 0.0 0.0 0.00 0.00 0.00 90 1017.7
20260831030658 23 162 0.0 0.0 0.00 0.00 0.00 90 1017.7
20260831030157 23 144 0.0 0.0 0.00 0.00 0.00 91 1017.7
20260831025656 23 121 0.0 0.0 0.00 0.13 0.13 91 1017.9
20260831025150 23 167 0.0 0.0 0.00 0.13 0.13 91 1018.1
20260831024648 23 145 0.0 0.0 0.00 0.13 0.13 90 1017.9
20260831024145 23 153 0.0 0.0 0.00 0.13 0.13 90 1018.1
20260831023644 23 181 0.0 0.0 0.00 0.13 0.13 90 1018.3
20260831023137 23 160 0.0 0.0 0.00 0.13 0.13 90 1018.4
20260831022632 23 77 0.0 0.0 0.00 0.13 0.13 92 1018.6